Casper-Natrona County International Airport
KCPR : now visible

Airfield :











YOU CAN JOIN US ON...

 
LOGIN :

Register | Disclaimer

   EN    FR    IT 

 









Legend :    VFR   Marginal VFR   IFR   Intensive IFR   Very Intensive IFR
Visi :
Ceiling :
>= 8 km
>= 3000ft
5 to 8 km
1000 to 3000 ft
1500m to 5 km
500 to 1000 ft
800 to 1500m
200 to 500 ft
< 800m
< 200 ft
Symbols :   Thunderstorms  Fog  Heavy snow  Heavy precipitations  Wind > 20 kt






- Airport Elevation : 5350 ft
- IATA code : CPR


KCPR - Casper-Natrona County International

CURRENT METAR :
  • 281753Z 19004G17KT 10SM CLR 04/M07 A2990 RMK AO2 SLPNO 6//// T00441067 $

EXPIRED METARs :
  • 281653Z 21016KT 10SM CLR 03/M06 A2991 RMK AO2 SLPNO T00331061 $
  • 281553Z 22014KT 10SM CLR 02/M06 A2991 RMK AO2 SLPNO T00171056 $

TAF KCPR
Valid from the 28 at 18:00 until the 29 at 18:00 UTC


281736Z 2818/2918 22016KT P6SM SCT070
FM281900 26012G20KT P6SM SCT080
FM290100 24007KT P6SM SCT080
FM291500 23010G20KT P6SM SKC



MET'MAP, your aeronautical weather chart ! - Copyright ORBIFLY December 2007 - Disclaimer

ORBIFLY MET'MAP TEAM :

Programming & Development : Alexandra Zaïnal
Concept & original design : Baudouin d'Aumeries
Assistance for programming : Marc-Olivier Méhu
Technical & hardware support : Manuel Goepfert

Contact : metmap@orbifly.com




SOURCES & CREDITS :

   NOAA       Earth
Advisory